Regional Weather Roundup
Issued by NWS

Home | Current Version | Previous Version | Text Only | Print | Product List | Glossary Off
Versions: 1 2 3 4 5 6 7 8 9 10 11 12 13 14 15 16 17 18 19 20 21 22 23 24 25 26 27 28 29 30 31 32 33 34 35 36 37 38 39 40 41 42 43 44 45 46 47 48 49 50

759
ASUS45 KSLC 220210
RWRUT

UTAH REGIONAL WEATHER ROUNDUP
NATIONAL WEATHER SERVICE SALT LAKE CITY UT
700 PM MST SAT JAN 21 2017

UTZ001>011-023>025-220300-

NORTHERN UTAH

CITY           SKY/WX    TMP DP  RH WIND       PRES   REMARKS
BRIGHAM CITY     N/A     35  27  73 CALM      29.82R
HILL AFB       CLOUDY    31  25  81 SE6       29.81R WCI  25
LOGAN          LGT SNOW  32  32 100 CALM      29.80R FOG
OGDEN          CLOUDY    32  27  81 SE5       29.81R WCI  27
SALT LAKE CITY MOCLDY    32  28  85 S3        29.82R
TOOELE VALLEY  CLOUDY    32  28  86 S5        29.82R WCI  27
WENDOVER       CLOUDY    32  25  74 CALM      29.82R
HEBER CITY     CLOUDY    28  21  74 CALM      29.78R

$$

UTZ011>015-024>027-220300-

CENTRAL/NORTHEAST UTAH

CITY           SKY/WX    TMP DP  RH WIND       PRES   REMARKS
PROVO AIRPORT  MOCLDY    29  26  89 S6        29.84R WCI  23
MOAB/CANYONLAN CLEAR     38  29  70 W10       29.73R WCI  31
DELTA          CLEAR     28  27  93 SE9       29.84R WCI  20
PRICE          PTCLDY    29  18  63 NW9       29.74R WCI  20
RICHFIELD      CLOUDY    30  25  80 N2        29.86
ROOSEVELT      CLOUDY    23  19  86 N5        29.75R WCI  17
VERNAL         CLOUDY    23  21  92 CALM      29.73R FOG

$$

UTZ013>016-019>022-027-220300-

SOUTHERN UTAH

CITY           SKY/WX    TMP DP  RH WIND       PRES   REMARKS
BRYCE CANYON   PTCLDY    22  15  75 NW15      29.82R WCI   9
CEDAR CITY     CLEAR     28  19  69 S8        29.85R WCI  20
MILFORD        CLEAR     28  22  78 S3        29.82R
ST GEORGE      MOCLDY    45  32  61 CALM      29.92R
HANKSVILLE     PTCLDY    37  23  56 MISG      29.81R
KANAB          CLEAR     36  28  75 SW12      29.92R WCI  27
BLANDING       CLOUDY    32  28  87 W5        29.81R WCI  27

$$

REGIONAL REPORTS     COLORADO/ARIZONA

CITY           SKY/WX    TMP DP  RH WIND       PRES   REMARKS
CRAIG, CO      LGT SNOW  27  23  85 W13       29.69R FOG     WCI  16
GRAND JUNCTION CLOUDY    34  33  96 W6        29.70R WCI  29
RIFLE, CO      FLURRIES  33  32  96 W13       29.67R WCI  24
MONTROSE, CO   LGT SNOW  31  30  96 NW12      29.72R FOG     WCI  22
CORTEZ, CO     CLOUDY    32  29  88 W13       29.73R WCI  22
COLORADO CITY    N/A     34  32  93 CALM      29.92R
PAGE, AZ       CLEAR     42  19  39 W9        29.84R
GRAND CANYON   PTCLDY    22  19  89 CALM      29.91R
KINGMAN, AZ    CLEAR     42  25  50 SW12      29.94R
FLAGSTAFF, AZ  CLEAR     25  21  85 W6        29.91R WCI  18

$$

REGIONAL REPORTS    NEVADA/IDAHO/WYOMING

CITY           SKY/WX    TMP DP  RH WIND       PRES   REMARKS
LAS VEGAS, NV  PTCLDY    51  29  42 S6        29.90R
ELY, NY        PTCLDY    22  16  78 SE6       29.84R WCI  14
ELKO, NV       MOCLDY    29  21  72 W5        29.80R WCI  24
POCATELLO, ID  CLOUDY    32  25  75 SW17      29.76R WCI  21
BURLEY, ID     CLOUDY    32  27  81 SW6       29.76R WCI  26
FORT BRIDGER,    N/A     23  23 100 W20       29.74R WCI   8
EVANSTON, WY   CLOUDY    20  15  81 W14       29.74R WCI   7
ROCK SPRINGS,  CLOUDY    25  21  85 W16       29.67R WCI  12

$$




USA.gov is the U.S. government's official web portal to all federal, state and local government web resources and services.